Location: *
(50.8160°S, 176.0219°W)
Time: 23:20:23
(UTC+00:00)

SL-16 R/B - Pass Details

Date: 19 May 2026
Orbit: 838 x 849 km, 71.0° (Epoch: 6 June)

Event Time Altitude Azimuth Distance (km) Brightness Sun altitude
Exits shadow 15:25:22 23° 156° (SSE) 1,748 4.1 -36.4°
Drops below altitude 10° 15:27:25 10° 152° (SSE) 2,494 5.0 -36.1°
Sets 15:29:53 0° 150° (SSE) 3,434 5.9 -35.8°
